Location: Unspecified
(0.0000°N, 0.0000°E)
Time: 10:56:25
(UTC+00:00)

Explorer 11/Cluster Stage 4 - Pass Details

Date: 01 October 2020
Orbit: 467 x 1258 km, 28.8° (Epoch: 28 October)

Event Time Altitude Azimuth Distance (km) Brightness Sun altitude
Rises 09:36:24 0° 272° (W) 4,185 10.0 56.6°
Reaches altitude 10° 09:40:07 10° 258° (WSW) 3,174 9.5 57.5°
Maximum altitude 09:46:07 23° 210° (SSW) 2,218 9.0 59.0°
Drops below altitude 10° 09:51:36 10° 160° (SSE) 2,853 9.8 60.3°
Sets 09:54:45 0° 145° (SE) 3,670 10.3 61.1°
